NOAA 16 DEB, 41272

Orbit data source: Space-Track

NOAA 16 DEB, 41272 is space debris in SSO originally from a launch on Thu, 21 Sep 2000 UTC launched from the Air Force Western Test Range (AFWTR). Debris objects in space refer to the collection of defunct objects orbiting the Earth. Examples of debris include non-operational satellites, rocket bodies, and fragments generated from explosions, collisions, or faulty payload assembly.

Loading next visibility...
Identifier
41272, 2000-055FY
Orbit
SSO
Country
Flag of USUS
Related business
Manufacturer
Unknown
Mission
Spacecraft
Bus & Motor
Unknown
Mass
Unknown
Launch date (UTC)
2000-09-21 (25 years ago)
Launch vehicle
Unknown
Launch site
Air Force Western Test Range (AFWTR)
Object type
Payload
Rocket body
Debris
Shape & HBR
Unknown shape, 0.1 m
Radar Cross Section
Small (<0.1 m²)

Expand to show TLE details & history
Last TLE update: 2 days ago

TLE from 2 days ago
0 NOAA 16 DEB
1 41272U 00055FY  25346.13498300  .00007143  00000-0  30748-2 0  9993
2 41272  98.7517  50.1857 0025975 304.4368  55.4357 14.24705539513690
Epoch: 2025-12-12T03:14Z
TLE epoch observation values (Epoch: 2025-12-12T03:14:22.531Z)
Latitude
0.00006°
Longitude
-79.48915°
Altitude
801.841 km
Speed
7.458 km/s
True Right ascension
03h 20m 44s
True Declination
0° 00' 00"
Sunlit
Object was in full shadow at epoch
Visualization orbit readout
Latitude
Unknown
Longitude
Unknown
Altitude
Unknown
Speed
Unknown
Apparent Right ascension
Unknown
Apparent Declination
Unknown
Sunlit
N/A
Visualization observer readout
Local Sidereal Time
15:17:03
Azimuth
Unknown
Elevation
Unknown
Doppler factor
Unknown
Orbital elements
Apogee altitude
825.3 km
Perigee altitude
787.975 km
Semi-major axis
7,184.774 km
Eccentricity
0.0026
Inclination
98.7517°
RAAN
50.1857°
Arg. of periapsis
304.4368°
True anomaly
55.68126°
Mean anomaly
55.4357°
Eccentric anomaly
55.55844°
Mean motion
3.56388 °/min
Orbital period
101.01 mins
BSTAR
0.0030748
Loading maneuver chart data...
Computing Atmospheric mass density...
Loading historical data...
Loading historical data...
Loading historical data...
Loading historical data...
Loading historical data...
Loading historical data...
Loading historical data...

Documentation

Showing up to 5 results
|